Weather in Elan'-Kolenovskiy

Russia / Voronezh Oblast     51°10′19″N   41°09′05″E
temp.,
°C
wind,
m/s
gust,
m/s
humid.,
%
clouds,
%
prec.,
mm/h
press.,
hPa
HPBL,
m
25 february, thu
thu2500:00−15s479491 0.1 1038341
03:00−14ssw4109596 0.4 1035387
06:00−12ssw51193100 0.4 1032437
09:00−10sw61192100 0.6 1030467
12:00−7sw71295100 0.6 1027474
15:00−3sw71293100 1.1 1023467
18:00−2wsw81493100 0.8 1020421
21:00+1w71397100 1.3 1019361
26 february, fri
fri2600:00+1w51099100 0.0 1018264
03:00+1w61099100 0.2 1018284
06:00+1wnw51198100 0.1 1017295
09:00+1w510100100 0.4 1017280
12:00+2w512100100 0.1 1016287
15:00+2w614100100 0.1 1015410
18:00+2w71498100 0.1 1013431
21:00+2w71398100 0.4 1012367
27 february, sat
sat2700:00+2w71497100 0.1 1010418
03:00+1w61295100 0.1 1010448
06:00+1w61394100 0.0 1008462
09:00+1w61298100 0.1 1008522
12:00+1w61297100 0.1 1007568
15:00+1w51197100 0.1 1007617
18:00+1w61297100 0.1 1006523
21:00+1wnw61197100 0.2 1007515
28 february, sun
sun2800:000wnw51095100 0.1 1008519
03:00−1nnw489694 0.2 1010338
06:00−5nnw5108691 0.0 1011477
09:00−6nnw478689 0.0 1013510
12:00−5nnw578496 0.0 1015574
15:00−5nnw578498 0.0 1016656
18:00−5nnw5885100 0.0 1018659
21:00−6n578998 0.1 1020634
1 march, mon
mon100:00−6nnw359392 0.2 1022369
03:00−6nnw369386 0.3 1023383
06:00−8nnw479285 0.0 1024376
09:00−8n478877 0.0 1027557
12:00−6nnw468396 0.0 1028636
15:00−5nnw588398 0.0 1029664
18:00−6nnw259295 0.0 1029154
21:00−6nw378995 0.0 1030319